KG6LPP Weather Reports


time (UTC)temp
F
wind
direction
speed
knots
gust
knots
rain 1hr
in
rain 24hr
in
rain mn
in
humidity
%
barometer
mb
20260506154521 49 266 0.0 0.0 0.00 0.06 0.03 58 1008.0
20260506153020 47 128 0.0 0.0 0.00 0.06 0.03 61 1008.1
20260506151519 46 309 0.0 0.0 0.00 0.06 0.03 66 1008.1
20260506144517 43 304 0.0 0.0 0.00 0.06 0.03 67 1008.3
20260506143016 43 296 0.0 0.0 0.00 0.06 0.03 68 1008.1
20260506141515 42 65 0.0 0.0 0.00 0.06 0.03 71 1007.9
20260506134532 41 57 0.0 0.0 0.00 0.06 0.03 74 1008.0
20260506133015 40 293 0.0 0.0 0.00 0.06 0.03 75 1008.0
20260506131514 39 292 0.0 0.0 0.00 0.06 0.03 77 1007.6
20260506124513 39 82 0.0 0.9 0.00 0.06 0.03 79 1006.7
20260506123009 38 90 0.0 0.0 0.00 0.06 0.03 83 1006.3
20260506121511 36 79 0.0 0.0 0.00 0.06 0.03 85 1006.5
20260506114515 35 79 0.0 0.0 0.00 0.06 0.03 85 1006.3
20260506113007 36 79 0.0 0.0 0.00 0.06 0.03 85 1006.2
20260506111502 37 79 0.0 0.0 0.00 0.06 0.03 85 1006.3
20260506104606 38 79 0.0 0.0 0.00 0.06 0.03 84 1005.9
20260506103105 38 79 0.0 0.0 0.00 0.06 0.03 84 1005.8
20260506101555 39 79 0.0 0.0 0.00 0.06 0.03 83 1005.7
20260506094552 39 79 0.0 0.0 0.00 0.06 0.03 81 1005.2
20260506093056 39 79 0.0 0.9 0.00 0.06 0.03 81 1005.0
20260506091550 40 74 0.0 0.0 0.00 0.06 0.03 83 1005.0
20260506084527 40 74 0.0 0.0 0.00 0.06 0.03 77 1004.9
20260506081506 43 74 0.0 0.0 0.00 0.06 0.03 70 1004.7
20260506071501 45 111 0.0 0.0 0.00 0.06 0.03 69 1004.5
20260506070126 45 74 0.0 0.0 0.00 0.06 0.03 68 1004.4
20260506061558 46 313 0.0 0.9 0.00 0.06 0.03 69 1004.2
20260506050104 44 80 0.0 0.0 0.01 0.06 0.03 79 1003.8
20260506044556 44 76 0.0 0.9 0.01 0.06 0.03 80 1003.4
20260506041557 43 325 0.0 0.0 0.02 0.06 0.03 85 1003.3
20260506040049 44 74 0.0 0.0 0.02 0.06 0.03 84 1003.0
20260506034548 45 132 0.0 0.9 0.01 0.05 0.02 79 1002.8
20260506031540 49 291 0.0 0.0 0.00 0.04 0.01 68 1001.7
20260506030037 50 290 0.0 0.0 0.00 0.04 0.01 66 1001.4
20260506024539 50 290 0.0 0.0 0.00 0.04 0.01 65 1000.8
20260506021533 50 340 0.0 0.0 0.00 0.04 0.01 65 1000.4
20260506020029 51 340 0.0 0.0 0.00 0.04 0.01 64 999.9
20260506014528 51 340 0.0 0.0 0.00 0.04 0.01 63 999.5
20260506011555 52 340 0.0 0.0 0.00 0.04 0.01 59 999.2
20260506010023 53 55 0.0 0.0 0.00 0.04 0.01 60 999.4
20260506004522 53 55 0.0 0.0 0.00 0.04 0.01 60 998.8
20260506001527 55 55 0.0 0.0 0.00 0.04 0.01 58 998.7
20260506000044 55 53 0.0 0.0 0.00 0.04 0.01 56 998.8
20260505234538 55 53 0.0 0.0 0.01 0.04 0.01 54 998.5
20260505231522 57 281 0.0 0.0 0.01 0.04 0.01 53 998.5
20260505230044 56 296 0.0 0.0 0.01 0.04 0.01 60 998.5
20260505224532 53 292 0.0 0.0 0.00 0.03 0.00 66 998.6
20260505221514 52 138 0.0 0.0 0.00 0.03 0.00 79 999.2
20260505220009 53 36 0.0 0.9 0.00 0.03 0.00 69 999.1
20260505214509 57 51 0.0 0.0 0.00 0.03 0.00 63 999.0
20260505211511 61 141 0.0 0.0 0.00 0.03 0.03 52 998.9
20260505210007 61 80 0.0 0.9 0.00 0.03 0.03 55 998.6
20260505204507 58 315 0.0 0.0 0.00 0.03 0.03 57 998.6
20260505201504 58 316 0.0 2.6 0.00 0.03 0.03 61 998.9
20260505200004 58 58 0.0 0.9 0.01 0.03 0.03 61 998.6
20260505194504 56 325 0.0 0.0 0.03 0.03 0.03 67 998.7
20260505191507 52 22 0.0 0.0 0.03 0.03 0.03 89 999.2
20260505190004 52 59 0.0 0.0 0.02 0.02 0.02 78 999.6
20260505184507 56 61 0.0 0.0 0.00 0.00 0.00 60 999.5
20260505181503 58 15 0.0 0.0 0.00 0.00 0.00 51 999.3
20260505180003 59 53 0.0 0.9 0.00 0.00 0.00 49 999.3
20260505174502 57 53 0.0 0.0 0.00 0.00 0.00 51 999.3
20260505171625 55 36 0.0 0.0 0.00 0.00 0.00 55 999.5
20260505170057 51 36 0.0 0.0 0.00 0.00 0.00 61 999.6
20260505164605 51 36 0.0 0.0 0.00 0.00 0.00 60 999.6
20260505163156 50 44 0.0 0.0 0.00 0.00 0.00 62 999.6
20260505161556 51 41 0.0 0.0 0.00 0.00 0.00 62 999.8